[[{"header":{"parameterUnit":"m.s-1","parameterCategory":1,"la1":30.2992,"la2":30.254,"lo1":-89.0895,"lo2":-89.0443,"dy":0.0025,"dx":0.0025,"nx":19,"ny":19,"refTime":"2026-04-26T03:00:00:Z","depth":0,"parameterNumber":2,"parameterNumberName":"U-component_of_WINDS"},"data":[0,0,0,2.4023,2.403,2.4369,2.437,2.4784,2.4788,0,0,0,0,0,0,0,0,0,0,0,2.391,2.3912,2.4022,2.403,2.4368,2.437,2.4784,2.4788,0,0,0,0,0,0,0,0,0,0,0,2.3909,2.3912,2.3915,2.4032,2.4368,2.437,2.4783,2.4534,0,0,0,0,0,0,0,0,0,0,2.4209,2.4092,2.3911,2.3915,2.4034,2.4368,2.437,2.4523,2.455,2.4623,0,2.4683,0,2.4742,2.4814,2.4816,0,0,0,2.404,2.407,2.4172,2.3915,2.4036,2.4367,2.4219,2.4538,2.4569,2.4659,2.4689,2.4705,2.4749,2.4817,2.4819,2.5206,2.5207,0,0,2.4021,2.3965,2.4151,2.4191,2.4137,2.4208,2.4229,2.4557,2.4587,2.4691,2.4715,2.4756,2.482,2.4823,2.5204,2.5206,0,0,0,2.3961,2.3951,2.4046,2.4174,2.4236,2.4217,2.4242,2.4573,2.4608,2.472,2.4761,2.4822,2.4827,2.5203,2.5205,2.5217,0,0,0,2.395,2.3916,2.4037,2.4006,2.423,2.4408,2.4249,2.4585,2.4624,2.4758,2.4822,2.4831,2.5202,2.5204,2.5214,2.5232,0,0,0,2.3892,2.3909,2.3954,2.4002,2.4146,2.4404,2.4459,2.4595,2.4649,2.4816,2.4832,2.5201,2.5204,2.5211,2.5227,2.5318,0,0,0,2.3814,2.3959,2.3953,2.4132,2.4142,2.4409,2.4458,2.4659,2.4804,2.4824,2.5202,2.5205,2.521,2.5224,2.5314,2.5384,2.5408,0,0,2.3966,2.3976,2.4085,2.409,2.4342,2.4361,2.4618,2.4804,2.4872,2.5091,2.5101,2.5215,2.5227,2.5317,2.5559,2.5577,0,0,0,2.4114,2.4192,2.4272,2.4407,2.4553,2.468,2.4834,2.4903,2.5092,2.4973,2.5274,2.5283,2.5338,2.5374,2.539,2.5441,2.5219,2.5219,2.5218,2.4247,2.4326,2.4514,2.4634,2.4765,2.4923,2.5037,2.5158,2.52,2.5269,2.5335,2.5472,2.5512,2.5524,2.5577,2.5378,2.5378,2.5378,2.5378,2.4477,2.46,2.4653,2.4854,2.4938,2.5108,2.5266,2.5291,2.5462,2.5429,2.5482,2.5438,2.5541,2.5592,2.538,2.538,2.5379,2.5379,2.5379,2.4572,2.4645,2.4728,2.4933,2.5082,2.52,2.5362,2.5433,2.5501,2.5553,2.5631,2.5631,2.5641,2.5585,2.5586,2.5586,2.5587,2.5587,2.5588,2.4639,2.4732,2.4859,2.5028,2.5125,2.5262,2.5423,2.5521,2.5648,2.5687,2.5688,2.5724,2.5536,2.5488,2.5595,2.5594,2.5593,2.5592,2.5592,2.4843,2.4808,2.5005,2.5102,2.5307,2.5452,2.554,2.5735,2.5826,2.5904,2.593,2.5779,2.5795,2.5783,2.5743,2.5911,2.5911,2.5911,2.5911,2.4923,2.4938,2.5157,2.5308,2.5464,2.5565,2.5787,2.5915,2.6042,2.6104,2.609,2.6044,2.6028,2.6053,2.6035,2.6,2.6229,2.6229,2.6229,2.5054,2.5087,2.5261,2.5384,2.555,2.5692,2.5903,2.6076,2.6213,2.6244,2.6154,2.6141,2.6067,2.6038,2.6066,2.6037,2.5973,0,0]},{"header":{"parameterUnit":"m.s-1","parameterCategory":1,"la1":30.2992,"la2":30.254,"lo1":-89.0895,"lo2":-89.0443,"dy":0.0025,"dx":0.0025,"nx":19,"ny":19,"refTime":"2026-04-26T03:00:00:Z","depth":0,"parameterNumber":3,"parameterNumberName":"V-component_of_WINDS"},"data":[0,0,0,4.183,4.1836,4.211,4.2111,4.2447,4.245,0,0,0,0,0,0,0,0,0,0,0,4.1743,4.1745,4.183,4.1836,4.211,4.2111,4.2446,4.245,0,0,0,0,0,0,0,0,0,0,0,4.1742,4.1744,4.1747,4.1837,4.211,4.2111,4.2446,4.2244,0,0,0,0,0,0,0,0,0,0,4.198,4.1894,4.1744,4.1747,4.1839,4.2109,4.2111,4.2234,4.2256,4.2318,0,4.2373,0,4.2417,4.2472,4.2473,0,0,0,4.184,4.1876,4.1955,4.1748,4.1841,4.2109,4.1988,4.2247,4.2272,4.2347,4.2378,4.2391,4.2422,4.2474,4.2475,4.2824,4.2825,0,0,4.1825,4.1788,4.1938,4.1971,4.1931,4.1979,4.1996,4.2262,4.2292,4.2379,4.2399,4.2428,4.2476,4.2478,4.2822,4.2824,0,0,0,4.1779,4.1777,4.1851,4.1957,4.2008,4.1987,4.2007,4.228,4.2308,4.2402,4.2432,4.2478,4.2482,4.2821,4.2823,4.2861,0,0,0,4.177,4.1751,4.1844,4.1824,4.2003,4.2148,4.2019,4.2289,4.232,4.243,4.2478,4.2485,4.2819,4.2822,4.2857,4.2885,0,0,0,4.1727,4.1746,4.1784,4.1822,4.1939,4.2145,4.2187,4.2297,4.2338,4.2473,4.2486,4.2818,4.2821,4.2853,4.2879,4.2968,0,0,0,4.167,4.1812,4.1784,4.1954,4.1936,4.2167,4.2186,4.2359,4.2479,4.248,4.2819,4.2823,4.2852,4.2875,4.2963,4.3037,4.3064,0,0,4.1829,4.183,4.1933,4.1915,4.2142,4.2128,4.236,4.2503,4.2547,4.2728,4.2737,4.2858,4.2879,4.2967,4.3225,4.3246,0,0,0,4.197,4.2044,4.2112,4.2226,4.2341,4.2441,4.2553,4.2606,4.2762,4.2634,4.2915,4.2928,4.2981,4.3018,4.3036,4.3084,4.2838,4.2837,4.2837,4.2143,4.2195,4.2368,4.2453,4.2563,4.2678,4.2771,4.2862,4.2879,4.2945,4.2999,4.315,4.3192,4.3206,4.3256,4.3041,4.3041,4.3041,4.3042,4.2381,4.2494,4.2516,4.2693,4.2746,4.2894,4.3009,4.3016,4.3161,4.3113,4.3162,4.3107,4.3228,4.3274,4.3045,4.3044,4.3044,4.3044,4.3043,4.2501,4.2564,4.2628,4.2799,4.2924,4.3003,4.3142,4.3184,4.3224,4.3272,4.3335,4.3335,4.334,4.3299,4.33,4.33,4.3301,4.3301,4.3301,4.2601,4.2671,4.2785,4.2918,4.2998,4.3107,4.3223,4.3301,4.3398,4.3417,4.3418,4.3429,4.323,4.3179,4.331,4.3308,4.3307,4.3306,4.3306,4.2826,4.2782,4.2957,4.3036,4.3197,4.3318,4.337,4.3526,4.3596,4.3663,4.3664,4.3509,4.3512,4.3498,4.3457,4.3652,4.3652,4.3652,4.3652,4.2928,4.2934,4.3123,4.3248,4.3374,4.3439,4.3633,4.3723,4.381,4.3856,4.3833,4.3782,4.3765,4.3779,4.3759,4.3721,4.3978,4.3979,4.3979,4.307,4.309,4.3249,4.3336,4.3464,4.3573,4.3757,4.3897,4.3985,4.3993,4.3893,4.388,4.3797,4.3767,4.3774,4.3742,4.3673,0,0]}]]